This is the latest recevied weather packets stored in our database for station/object AE5HO. If no packets are shown the sender has not sent any weather packets the latest 10 day(s).
| Time | Temp. | Humidity | Pressure | Rain* | Wind** | Luminosity | Snow |
|---|---|---|---|---|---|---|---|
| 1787572329 | 29.44° C | 54% | 1014.1 hPa | 0 mm | - | 0 W/m² | - |
| 1787572023 | 28.89° C | 55% | 1014 hPa | 0 mm | - | 0 W/m² | - |
| 1787571724 | 28.89° C | 57% | 1013.9 hPa | 0 mm | - | 0 W/m² | - |
| 1787571423 | 28.89° C | 56% | 1013.9 hPa | 0 mm | - | 0 W/m² | - |
| 1787571118 | 28.33° C | 58% | 1014 hPa | 0 mm | - | 0 W/m² | - |
| 1787570814 | 28.89° C | 58% | 1013.8 hPa | 0 mm | - | 0 W/m² | - |
| 1787570509 | 28.89° C | 58% | 1014 hPa | 0 mm | - | 0 W/m² | - |
| 1787570206 | 28.89° C | 56% | 1013.8 hPa | 0 mm | - | 0 W/m² | - |
| 1787569901 | 28.89° C | 55% | 1013.7 hPa | 0 mm | - | 0 W/m² | - |
| 1787569598 | 29.44° C | 54% | 1013.6 hPa | 0 mm | - | 0 W/m² | - |
| 1787569292 | 29.44° C | 54% | 1013.5 hPa | 0 mm | - | 0 W/m² | - |
| 1787568991 | 30° C | 53% | 1013.8 hPa | 0 mm | - | 0 W/m² | - |
| 1787568686 | 30° C | 53% | 1013.6 hPa | 0 mm | - | 0 W/m² | - |
| 1787568382 | 30° C | 52% | 1013.3 hPa | 0 mm | - | 0 W/m² | - |
| 1787568078 | 30° C | 51% | 1013.6 hPa | 0 mm | - | 0 W/m² | - |
| 1787567773 | 30° C | 52% | 1013.1 hPa | 0 mm | - | 0 W/m² | - |
| 1787567468 | 30° C | 52% | 1013.4 hPa | 0 mm | - | 0 W/m² | - |
| 1787567167 | 30.56° C | 51% | 1013.1 hPa | 0 mm | - | 0 W/m² | - |
| 1787566861 | 30.56° C | 51% | 1013 hPa | 0 mm | - | 0 W/m² | - |
| 1787566556 | 30.56° C | 51% | 1013.3 hPa | 0 mm | - | 0 W/m² | - |
| 1787566251 | 30.56° C | 50% | 1012.9 hPa | 0 mm | - | 0 W/m² | - |
| 1787565947 | 31.11° C | 49% | 1013 hPa | 0 mm | - | 0 W/m² | - |
| 1787565643 | 31.11° C | 50% | 1013 hPa | 0 mm | - | 0 W/m² | - |
| 1787565338 | 31.11° C | 49% | 1013.1 hPa | 0 mm | - | 0 W/m² | - |
| 1787565035 | 31.11° C | 50% | 1012.9 hPa | 0 mm | - | 0 W/m² | - |
* Rain latest hour (hover to see other rain measurements)
** Current wind speed in m/s (hover to see current wind gust speed)